IRIDIUM 106 1 41917U 17003A 26126.37391552 -.00000012 00000+0 -11196-4 0 9991 2 41917 86.3933 106.0384 0002398 79.4784 280.6681 14.34217270487213 IRIDIUM 103 1 41918U 17003B 26126.36123045 .00000000 00000+0 -72181-5 0 9999 2 41918 86.3932 105.9436 0002341 93.8966 266.2498 14.34217285487233 IRIDIUM 109 1 41919U 17003C 26126.36757346 -.00000019 00000+0 -13818-4 0 9999 2 41919 86.3935 105.9997 0002197 88.9763 271.1684 14.34216986487204 IRIDIUM 102 1 41920U 17003D 26126.33585748 .00000104 00000+0 30012-4 0 9991 2 41920 86.3933 105.9375 0002239 86.2702 273.8749 14.34218490487286 IRIDIUM 105 1 41921U 17003E 26126.36423539 .00000283 00000+0 93833-4 0 9992 2 41921 86.3983 74.3489 0003778 67.8640 292.2957 14.34205381489140 IRIDIUM 104 1 41922U 17003F 26126.34854093 .00000155 00000+0 48119-4 0 9999 2 41922 86.3932 105.9738 0002288 96.6315 263.5141 14.34216799487270 IRIDIUM 114 1 41923U 17003G 26126.35488841 -.00000017 00000+0 -12960-4 0 9999 2 41923 86.3932 105.9547 0002239 92.4377 267.7075 14.34217073487253 IRIDIUM 108 1 41924U 17003H 26126.31340833 .00000055 00000+0 12671-4 0 9993 2 41924 86.3950 74.2662 0002156 83.6547 276.4894 14.34217864489109 IRIDIUM 112 1 41925U 17003J 26126.34220054 .00000208 00000+0 67323-4 0 9993 2 41925 86.3932 105.8033 0002298 86.9619 273.1840 14.34217458487276 IRIDIUM 111 1 41926U 17003K 26126.32951503 -.00000135 00000+0 -55339-4 0 9997 2 41926 86.3932 105.8791 0002264 88.8036 271.3419 14.34216672487252 IRIDIUM 113 1 42803U 17039A 26126.30948001 .00000136 00000+0 41602-4 0 9995 2 42803 86.3976 339.6910 0002190 92.4030 267.7417 14.34216740465189 IRIDIUM 123 1 42804U 17039B 26126.21142292 .00000036 00000+0 57657-5 0 9991 2 42804 86.4008 11.1816 0002331 85.3745 274.7717 14.34217900463936 IRIDIUM 120 1 42805U 17039C 26126.30313869 .00000001 00000+0 -67983-5 0 9998 2 42805 86.3965 339.4815 0002047 82.5754 277.5674 14.34217455465172 IRIDIUM 115 1 42806U 17039D 26126.52006792 .00000309 00000+0 85868-4 0 9998 2 42806 86.4502 339.5140 0002433 83.5572 276.5906 14.43282388468257 IRIDIUM 118 1 42807U 17039E 26126.38267279 .00000069 00000+0 17456-4 0 9993 2 42807 86.4004 11.1082 0002205 86.5049 273.6399 14.34217721463957 IRIDIUM 117 1 42808U 17039F 26126.19239553 .00000024 00000+0 14077-5 0 9995 2 42808 86.4003 11.1456 0002298 85.8360 274.3099 14.34217685463956 IRIDIUM 126 1 42809U 17039G 26126.56660849 .00000002 00000+0 -63017-5 0 9998 2 42809 86.4002 11.0395 0002171 88.9448 271.1997 14.34217557463981 IRIDIUM 124 1 42810U 17039H 26126.24591639 .00000098 00000+0 23211-4 0 9990 2 42810 86.4454 307.9081 0002237 89.8284 270.3173 14.43283119469063 IRIDIUM 128 1 42811U 17039J 26126.48757831 .00000207 00000+0 66826-4 0 9996 2 42811 86.3994 42.5770 0002349 79.5515 280.5945 14.34218012464005 IRIDIUM 121 1 42812U 17039K 26126.37632866 .00000243 00000+0 79854-4 0 9990 2 42812 86.4005 11.1468 0002204 84.1165 276.0282 14.34216228463830 IRIDIUM 133 1 42955U 17061A 26126.51929074 .00000046 00000+0 92675-5 0 9997 2 42955 86.3995 42.6804 0002275 84.9106 275.2350 14.34217923448809 IRIDIUM 100 1 42956U 17061B 26126.51294818 .00000038 00000+0 64740-5 0 9992 2 42956 86.3992 42.6027 0002252 84.1471 275.9981 14.34217781448805 IRIDIUM 122 1 42957U 17061C 26126.20216151 .00000046 00000+0 95251-5 0 9993 2 42957 86.3993 42.7327 0002276 86.0145 274.1311 14.34217828448761 IRIDIUM 129 1 42958U 17061D 26126.50660502 .00000066 00000+0 16658-4 0 9995 2 42958 86.3992 42.6720 0002057 91.0891 269.0541 14.34217999448822 IRIDIUM 119 1 42959U 17061E 26126.47489262 .00000039 00000+0 68281-5 0 9994 2 42959 86.3995 42.6810 0002256 87.7658 272.3796 14.34217880448839 IRIDIUM 107 1 42960U 17061F 26126.49392090 .00000039 00000+0 67553-5 0 9991 2 42960 86.3993 42.6939 0002477 84.1985 275.9493 14.34217840448840 IRIDIUM 132 1 42961U 17061G 26126.50026246 .00000060 00000+0 14363-4 0 9995 2 42961 86.3992 42.6710 0002264 84.8503 275.2951 14.34218136448845 IRIDIUM 136 1 42962U 17061H 26126.46219939 .00000300 00000+0 99971-4 0 9999 2 42962 86.3995 42.6934 0002323 85.9197 274.2265 14.34221342448855 IRIDIUM 139 1 42963U 17061J 26126.46855028 .00000266 00000+0 88066-4 0 9999 2 42963 86.3995 42.7521 0002314 82.1204 278.0254 14.34217536448868 IRIDIUM 125 1 42964U 17061K 26126.52563434 -.00000031 00000+0 -18309-4 0 9999 2 42964 86.3995 42.7885 0002522 93.6048 266.5437 14.34217287448886 IRIDIUM 135 1 43070U 17083A 26126.29045314 .00000032 00000+0 44689-5 0 9998 2 43070 86.3972 339.5384 0002155 87.1199 273.0243 14.34217876438148 IRIDIUM 138 1 43071U 17083B 26126.31582393 .00000005 00000+0 -52775-5 0 9991 2 43071 86.3982 339.2166 0002075 95.8016 264.3416 14.34217501438139 IRIDIUM 116 1 43072U 17083C 26126.35389595 .00000232 00000+0 75827-4 0 9998 2 43072 86.3971 339.4984 0002214 78.0705 282.0740 14.34219854438175 IRIDIUM 130 1 43073U 17083D 26126.60124064 .00000040 00000+0 73147-5 0 9996 2 43073 86.3979 339.6660 0002345 83.0652 277.0811 14.34217924438156 IRIDIUM 151 1 43074U 17083E 26126.29679607 -.00000037 00000+0 -20175-4 0 9990 2 43074 86.3972 339.5789 0002018 85.3162 274.8264 14.34217253438139 IRIDIUM 134 1 43075U 17083F 26126.54415753 -.00000018 00000+0 -13558-4 0 9995 2 43075 86.3972 339.4828 0002161 85.7274 274.4169 14.34217336438132 IRIDIUM 137 1 43076U 17083G 26126.55684106 .00000033 00000+0 47677-5 0 9992 2 43076 86.3975 339.5697 0001834 76.0641 284.0759 14.34217930438208 IRIDIUM 141 1 43077U 17083H 26126.13188814 .00000120 00000+0 35699-4 0 9999 2 43077 86.3971 339.5803 0002110 89.5485 270.5952 14.34218175438147 IRIDIUM 153 1 43078U 17083J 26126.43290903 .00000034 00000+0 50997-5 0 9999 2 43078 86.3933 307.9402 0002273 95.0477 265.0978 14.34217921439295 IRIDIUM 131 1 43079U 17083K 26126.60758241 .00000036 00000+0 58700-5 0 9995 2 43079 86.3976 339.5647 0002082 88.4766 271.6668 14.34217921438142 IRIDIUM 144 1 43249U 18030A 26126.43925267 .00000065 00000+0 16076-4 0 9993 2 43249 86.3931 307.8676 0002166 86.5008 273.6436 14.34218524424154 IRIDIUM 149 1 43250U 18030B 26126.51536322 .00000065 00000+0 16292-4 0 9994 2 43250 86.3930 307.8032 0002122 92.2218 267.9221 14.34218613424180 IRIDIUM 157 1 43251U 18030C 26126.60415908 .00000023 00000+0 12882-5 0 9997 2 43251 86.3931 307.8183 0002148 89.4543 270.6899 14.34217793424175 IRIDIUM 140 1 43252U 18030D 26126.48365113 .00000158 00000+0 49480-4 0 9998 2 43252 86.3931 307.8812 0002224 89.8251 270.3199 14.34217663424211 IRIDIUM 145 1 43253U 18030E 26126.47096485 -.00000018 00000+0 -13551-4 0 9998 2 43253 86.3928 307.8590 0002092 81.2072 278.9360 14.34217428424146 IRIDIUM 146 1 43254U 18030F 26126.45193642 .00000021 00000+0 57544-6 0 9994 2 43254 86.3927 307.8794 0002041 86.5490 273.5939 14.34217795424159 IRIDIUM 148 1 43255U 18030G 26126.49000741 .00000062 00000+0 15023-4 0 9995 2 43255 86.3932 307.9059 0002039 89.0312 271.1117 14.34218802424195 IRIDIUM 142 1 43256U 18030H 26126.59783305 .00000062 00000+0 15175-4 0 9999 2 43256 86.3929 307.7513 0002173 84.3198 275.8246 14.34218589424178 IRIDIUM 150 1 43257U 18030J 26125.93818750 .00000018 00000+0 -55748-6 0 9994 2 43257 86.3929 308.1424 0002073 88.8589 271.2845 14.34217477424100 IRIDIUM 143 1 43258U 18030K 26126.05869559 .00000062 00000+0 15234-4 0 9994 2 43258 86.3935 308.1829 0002195 86.0882 274.0564 14.34218307424054 IRIDIUM 161 1 43478U 18047C 26126.36249870 .00000207 00000+0 55561-4 0 9996 2 43478 86.4453 105.9608 0002132 93.5400 266.6045 14.43280674419109 IRIDIUM 152 1 43479U 18047D 26126.45002563 .00000189 00000+0 60577-4 0 9995 2 43479 86.3926 105.7851 0002265 91.1762 268.9693 14.34217207416501 IRIDIUM 147 1 43480U 18047E 26126.45636575 .00000163 00000+0 51126-4 0 9995 2 43480 86.3927 105.7866 0002295 84.7917 275.3541 14.34216760416500 IRIDIUM 110 1 43481U 18047F 26126.39294290 -.00000013 00000+0 -11668-4 0 9996 2 43481 86.3929 105.9039 0002032 97.8093 262.3334 14.34217185416481 IRIDIUM 162 1 43482U 18047G 26126.35619638 .00000104 00000+0 24914-4 0 9997 2 43482 86.4452 105.8549 0002468 89.6401 270.5082 14.43279546419094 IRIDIUM 160 1 43569U 18061A 26126.54808062 .00000258 00000+0 85003-4 0 9997 2 43569 86.3953 74.2037 0002173 86.9058 273.2387 14.34219588407407 IRIDIUM 166 1 43570U 18061B 26126.36415045 .00000172 00000+0 54523-4 0 9992 2 43570 86.3953 74.2316 0002279 82.2297 277.9157 14.34221897407402 IRIDIUM 158 1 43571U 18061C 26126.33243641 .00000062 00000+0 15015-4 0 9992 2 43571 86.3951 74.2548 0002352 87.7935 272.3530 14.34217894407360 IRIDIUM 165 1 43572U 18061D 26126.35780648 .00000036 00000+0 56158-5 0 9993 2 43572 86.3956 74.2899 0002235 82.2222 277.9227 14.34217721407390 IRIDIUM 155 1 43573U 18061E 26126.31975143 .00000011 00000+0 -32004-5 0 9994 2 43573 86.3950 74.1768 0002295 85.5214 274.6244 14.34217607407354 IRIDIUM 154 1 43574U 18061F 26126.37049164 .00000016 00000+0 -13757-5 0 9995 2 43574 86.3954 74.2873 0002103 81.0264 279.1169 14.34217549407419 IRIDIUM 163 1 43575U 18061G 26126.56076993 .00000079 00000+0 21243-4 0 9993 2 43575 86.3952 74.1242 0002273 88.4668 271.6789 14.34217503407419 IRIDIUM 156 1 43576U 18061H 26126.32609140 .00000156 00000+0 48763-4 0 9996 2 43576 86.3953 74.2296 0002422 83.8807 276.2665 14.34219168407379 IRIDIUM 164 1 43577U 18061J 26126.37683564 .00000227 00000+0 74018-4 0 9995 2 43577 86.3953 74.2481 0002185 80.3191 279.8252 14.34214996407421 IRIDIUM 159 1 43578U 18061K 26126.55442678 .00000010 00000+0 -33183-5 0 9995 2 43578 86.3952 74.1116 0002067 88.0888 272.0544 14.34217660407411 IRIDIUM 180 1 43922U 19002A 26126.41438523 .00000075 00000+0 19701-4 0 9992 2 43922 86.4005 11.0574 0002088 87.5982 272.5453 14.34218065383006 IRIDIUM 176 1 43923U 19002B 26126.63072509 .00000730 00000+0 11190-3 0 9996 2 43923 86.6122 10.9166 0002311 80.6325 279.5153 14.72255414393138 IRIDIUM 168 1 43924U 19002C 26126.40804286 .00000235 00000+0 76803-4 0 9990 2 43924 86.4007 11.1360 0002188 85.4030 274.7416 14.34218132382980 IRIDIUM 173 1 43925U 19002D 26126.60466390 .00000037 00000+0 61648-5 0 9995 2 43925 86.4004 10.9446 0002259 87.5226 272.6228 14.34217847382990 IRIDIUM 169 1 43926U 19002E 26126.31011272 .00000320 00000+0 98218-4 0 9996 2 43926 86.4249 42.6938 0002898 85.7747 274.3783 14.38610284384204 IRIDIUM 172 1 43927U 19002F 26126.59831982 .00000078 00000+0 20802-4 0 9999 2 43927 86.4004 10.9551 0002107 87.1028 273.0409 14.34217197383004 IRIDIUM 175 1 43928U 19002G 26126.06273573 .00000094 00000+0 21921-4 0 9999 2 43928 86.4484 308.1413 0003988 36.6609 323.4865 14.43592073392902 IRIDIUM 171 1 43929U 19002H 26126.23045066 .00000017 00000+0 -11614-5 0 9998 2 43929 86.4011 11.4098 0002114 81.7713 278.3723 14.34217692382944 IRIDIUM 170 1 43930U 19002J 26126.63690104 .00000733 00000+0 11242-3 0 9992 2 43930 86.6124 10.9167 0002291 87.6586 272.4894 14.72253871393142 IRIDIUM 167 1 43931U 19002K 26126.43341407 -.00000002 00000+0 -79322-5 0 9996 2 43931 86.4002 11.0456 0002313 78.6069 281.5386 14.34217578382978 IRIDIUM 181 1 56726U 23068S 26126.37016131 .00000316 00000+0 87795-4 0 9993 2 56726 86.4492 74.2667 0002081 83.6869 276.4569 14.43308569156402 IRIDIUM 177 1 56727U 23068T 26126.34196658 .00000965 00000+0 12339-3 0 9995 2 56727 86.1979 348.6699 0002418 92.5760 267.5738 14.80255779160179 IRIDIUM 174 1 56728U 23068U 26126.62453906 .00000424 00000+0 63346-4 0 9994 2 56728 86.6132 11.0651 0002508 89.2999 270.8505 14.72245715159900 IRIDIUM 178 1 56729U 23068V 26126.26347692 .00001144 00000+0 14714-3 0 9993 2 56729 86.6563 42.8733 0002352 82.3996 277.7493 14.80223316160164 IRIDIUM 179 1 56730U 23068W 26126.52851512 .00000982 00000+0 12581-3 0 9994 2 56730 86.6791 51.6185 0002695 80.7286 279.4240 14.80229744160207